This demonstration page uses our WeatherBlox Daily Observations layout. Learn more.

Left ArrowRight Arrow

Hourly Observations for August 8, 2022

Temp ( °F °C ) Dew Point ( °F °C ) Humidity (%) Winds ( mph kmh ) Pressure ( in mb ) Visibility ( mi km ) Precip ( " mm )
12:53 am 00:53 Clear 81 27.2 55 12.8 41 41 Calm 29.90 1013 10 16 0.00 0.00
1:53 am 01:53 Clear 80 26.7 53 11.7 39 39 SW 3 6 29.91 1013 10 16 0.00 0.00
2:53 am 02:53 Mostly Clear with Light Rain 76 24.4 50 10 40 40 Calm 29.92 1013 10 16 0.00 0.00
3:53 am 03:53 Clear 71 21.7 56 13.3 59 59 Calm 29.92 1013 10 16 0.00 0.00
4:53 am 04:53 Clear 72 22.2 53 11.7 52 52 SW 3 6 29.92 1013 10 16 0.00 0.00
5:53 am 05:53 Clear 67 19.4 57 13.9 71 71 NNE 3 6 29.92 1013 10 16 0.00 0.00
6:53 am 06:53 Sunny 67 19.4 54 12.2 63 63 Calm 29.94 1014 10 16 0.00 0.00
7:53 am 07:53 Sunny 72 22.2 53 11.7 52 52 S 5 7 29.95 1014 10 16 0.00 0.00
8:53 am 08:53 Sunny 75 23.9 52 11.1 45 45 VRB 3 6 29.95 1014 10 16 0.00 0.00
9:53 am 09:53 Sunny 80 26.7 51 10.6 36 36 SSE 3 6 29.94 1014 10 16 0.00 0.00
10:53 am 10:53 Sunny 85 29.4 50 10 30 30 Calm 29.93 1014 10 16 0.00 0.00
11:53 am 11:53 Sunny 90 32.2 49 9.4 25 25 VRB 3 6 29.91 1013 10 16 0.00 0.00
12:53 pm 12:53 Sunny 92 33.3 48 8.9 22 22 WSW 6 9 29.89 1012 10 16 0.00 0.00
1:53 pm 13:53 Sunny 95 35 46 7.8 19 19 VRB 6 9 29.87 1012 10 16 0.00 0.00
2:53 pm 14:53 Sunny 99 37.2 40 4.4 13 13 S 15 24 29.85 1011 10 16 0.00 0.00
3:53 pm 15:53 Sunny 99 37.2 34 1.1 10 10 S 8 13 29.82 1010 10 16 0.00 0.00
4:53 pm 16:53 Sunny 100 37.8 31 -0.6 9 9 S 13 20 29.80 1009 10 16 0.00 0.00
5:53 pm 17:53 Sunny 98 36.7 35 1.7 11 11 S 14 22 29.79 1009 10 16 0.00 0.00
6:53 pm 18:53 Sunny 96 35.6 34 1.1 11 11 S 12 19 29.79 1009 10 16 0.00 0.00
7:53 pm 19:53 Sunny 93 33.9 32 0 12 12 SSW 13 20 29.80 1009 10 16 0.00 0.00
8:53 pm 20:53 Clear 90 32.2 33 0.6 13 13 SSW 6 9 29.82 1010 10 16 0.00 0.00
9:53 pm 21:53 Clear 83 28.3 35 1.7 18 18 Calm 29.84 1010 10 16 0.00 0.00
10:53 pm 22:53 Clear 82 27.8 37 2.8 20 20 NNE 3 6 29.85 1011 10 16 0.00 0.00
11:53 pm 23:53 Clear 79 26.1 39 3.9 24 24 Calm 29.85 1011 10 16 0.00 0.00

Powered by AerisWeather